GONETS M 15 (M25)

Satellite information

Favourite Embed

Satellite Type and Status

PAYLOADIN ORBIT

Key statistics

Satellite GONETS M 15 (M25) at a glance.

Uptime

2187

Days in orbit

Revolutions

≈ 12.4

Per day

Orbit

LEO

Low Earth Orbit

Inclination

82.5

Latest

Satellite identification and parameters

Extended collection of information and parameters for GONETS M 15 (M25).

Object identification

Identified? True

Debris? False

Object name: GONETS M 15 (M25)

International designator: 2019-096B

Object number (NORAD): 44906

Object ID (CCSDS): 44906

Country: COMMONWEALTH OF INDEPENDENT STATES (CIS)

Current information (Y/N): Y

RCS size: LARGE

Orbital parameters

Period: 115.861 minutes

Inclination: 82.5239 deg

SMA: 7872.616 km

Apoapsis: 1506.409 km

Periapsis: 1482.553 km

RAAN: 195.5561 deg

Eccentricy: 0.00151509

Argument of periapsis: 203.8729 deg

Mean anomaly: 156.1649 deg

Mean motion: 12.4286562 rev/day

Mean motion (dot): -0.00000063 rev/day2

B* drag term: -0.00052680375 1/REarth

Two-line elements (TLE)

Creation date: Dec. 21, 2025, 3:42 a.m.

Reference frame: TEME

Reference center: EARTH

Epoch: Dec. 20, 2025, 10:26 p.m. UTC

TLE line 0: 0 GONETS M 15 (M25)

TLE line 1: 1 44906U 19096B 25354.93480370 -.00000063 00000-0 -52680-3 0 9996

TLE line 2: 2 44906 82.5239 195.5561 0015151 203.8729 156.1649 12.42865620271503

Live tracking on map

Real-time ground track for satellite GONETS M 15 (M25).

In-orbit conjunctions

There are no conjunctions computed for GONETS M 15 (M25), at the moment. Check back to stay up to date, as we update our databases every day.

Go to all conjunctions

Associated space launch

Gonets-M are an upgraded version of Gonets satellites, derived from military communications system Strela-3. Gonets-M constellation is tasked with monitoring ecological and industrial objects, providing communication and data transmission services, covering also the remote areas like the Far North region. Gonets-M satellites share the ride with the Blits-M microsatellite, which is a geodesic satellite tasked with determining precise orbit parameters for GLONASS satellites.

GONETS M 15 (M25) was lifted into orbit during the mission ‘Rokot/Briz-KM | Gonets-M24, Gonets-M25, Gonets-M26 & Blits-M’, on board a Rokot/Briz-KM space rocket.

The launch took place on Dec. 26, 2019, 11:11 p.m. from 133/3 (133L).

For more information about the launch, click the button.

Launch to space Rokot/Briz-KM | Gonets-M24, Gonets-M25, Gonets-M26 & Blits-M
Rokot/Briz-KM | Gonets-M24, Gonets-M25, Gonets-M26 & Blits-M

Agency: N/A

Status: Launch Successful

Launch date: Dec. 26, 2019, 11:11 p.m. UTC

Rocket: Rokot/Briz-KM

Launch pad: 133/3 (133L)

Location: Plesetsk Cosmodrome, Russian Federation

...

Latest news about this satellite

News about space launch
Rokot conducts final launch – carries three Gonets-M satellites to orbit

News about space launch
Russia launches final Rockot with trio of communications satellites

News about space launch
Russia retires Rockot launcher after liftoff with four satellites


Newsletter sign-up

Weekly statistics, charts and insights to help you stay on top of the space industry.